EW3883 Weather Reports


time (UTC)temp
C
wind
direction
speed
KPH
gust
KPH
rain 1hr
cm
rain 24hr
cm
rain mn
cm
humidity
%
barometer
mb
20260505125037 14 0 0.0 1.6 0.00 0.41 0.41 99 1009.7
20260505124554 14 131 0.0 1.6 0.00 0.41 0.41 99 1009.6
20260505124037 14 119 0.0 1.6 0.00 0.41 0.41 99 1009.6
20260505123536 14 0 0.0 1.6 0.00 0.41 0.41 99 1009.8
20260505123055 14 0 0.0 3.2 0.00 0.41 0.41 99 1010.0
20260505122541 14 0 0.0 3.2 0.00 0.41 0.41 99 1010.1
20260505122039 14 0 0.0 1.6 0.00 0.41 0.41 99 1010.2
20260505121550 14 0 0.0 0.0 0.00 0.41 0.41 99 1010.4
20260505121037 14 0 0.0 0.0 0.00 0.41 0.41 99 1010.5
20260505120539 14 0 0.0 1.6 0.00 0.41 0.41 99 1010.5
20260505120107 14 0 0.0 1.6 0.00 0.41 0.41 99 1010.5
20260505115539 13 0 0.0 1.6 0.00 0.41 0.41 99 1010.7
20260505115039 13 0 0.0 1.6 0.03 0.41 0.41 99 1010.5
20260505114557 13 0 0.0 1.6 0.03 0.41 0.41 99 1010.3
20260505114037 13 0 0.0 1.6 0.03 0.41 0.41 99 1010.1
20260505113540 13 0 0.0 1.6 0.03 0.41 0.41 99 1010.2
20260505113101 13 0 0.0 1.6 0.03 0.41 0.41 98 1010.1
20260505112539 13 0 0.0 1.6 0.03 0.41 0.41 98 1009.9
20260505112038 13 0 0.0 1.6 0.03 0.41 0.41 98 1010.0
20260505111552 13 0 0.0 1.6 0.03 0.41 0.41 98 1009.7
20260505111042 13 0 0.0 1.6 0.05 0.41 0.41 98 1009.3
20260505110536 13 0 0.0 1.6 0.10 0.41 0.41 98 1009.3
20260505102038 14 0 0.0 0.0 0.30 0.38 0.38 95 1010.2
20260505101551 14 0 0.0 0.0 0.33 0.38 0.38 94 1010.4
20260505101038 14 0 0.0 1.6 0.33 0.36 0.36 94 1010.7
20260505100537 14 0 0.0 1.6 0.28 0.30 0.30 94 1010.9
20260505100052 14 0 0.0 1.6 0.25 0.25 0.25 93 1010.9
20260505095538 15 0 0.0 3.2 0.20 0.20 0.20 92 1011.0
20260505095038 15 0 0.0 4.8 0.18 0.18 0.18 92 1011.0
20260505094550 15 0 0.0 4.8 0.13 0.13 0.13 91 1010.9
20260505094038 15 288 0.0 6.4 0.13 0.13 0.13 90 1010.8
20260505093539 15 0 0.0 6.4 0.10 0.10 0.10 88 1010.9
20260505093055 15 0 1.6 6.4 0.10 0.10 0.10 85 1010.6
20260505092539 16 0 0.0 3.2 0.08 0.08 0.08 84 1010.3
20260505092044 16 51 0.0 1.6 0.08 0.08 0.08 82 1009.9
20260505091550 17 0 0.0 1.6 0.03 0.03 0.03 79 1009.5
20260505091038 17 0 0.0 1.6 0.03 0.03 0.03 76 1009.4
20260505090539 17 0 0.0 1.6 0.03 0.03 0.03 74 1009.3
20260505090055 17 0 0.0 1.6 0.00 0.00 0.00 70 1009.2
20260505085542 17 0 0.0 1.6 0.00 0.00 0.00 71 1009.0
20260505085042 17 0 0.0 1.6 0.00 0.00 0.00 71 1008.9
20260505084556 17 0 0.0 0.0 0.00 0.00 0.00 70 1008.8
20260505084038 17 0 0.0 0.0 0.00 0.00 0.00 70 1008.7
20260505083544 17 0 0.0 1.6 0.00 0.00 0.00 70 1008.7
20260505083101 17 0 0.0 1.6 0.00 0.00 0.00 70 1008.6
20260505082538 17 0 0.0 1.6 0.00 0.00 0.00 70 1008.5
20260505082038 17 0 0.0 1.6 0.00 0.00 0.00 69 1008.5
20260505081544 17 0 0.0 1.6 0.00 0.00 0.00 69 1008.3
20260505081039 17 0 0.0 1.6 0.00 0.00 0.00 68 1008.2
20260505080536 17 0 0.0 3.2 0.00 0.00 0.00 69 1008.0
20260505080050 17 0 0.0 3.2 0.00 0.00 0.00 68 1008.0
20260505075541 18 123 0.0 1.6 0.00 0.00 0.00 68 1008.1
20260505075039 18 0 0.0 1.6 0.00 0.00 0.00 67 1008.1
20260505074549 18 126 0.0 1.6 0.00 0.00 0.00 67 1008.2
20260505074039 18 0 0.0 1.6 0.00 0.00 0.00 67 1008.2
20260505073539 18 0 0.0 1.6 0.00 0.00 0.00 67 1008.0
20260505073044 18 0 0.0 1.6 0.00 0.00 0.00 67 1008.0
20260505072535 18 0 0.0 1.6 0.00 0.00 0.00 67 1007.8
20260505072038 18 0 0.0 3.2 0.00 0.00 0.00 66 1007.7
20260505071545 18 0 0.0 8.0 0.00 0.00 0.00 67 1007.6
20260505071039 18 0 0.0 8.0 0.00 0.00 0.00 66 1007.5
20260505070536 18 112 0.0 4.8 0.00 0.00 0.00 66 1007.6
20260505070059 18 89 0.0 4.8 0.00 0.00 0.00 66 1007.6
20260505065536 18 115 0.0 4.8 0.00 0.00 0.00 66 1007.7
20260505065038 18 0 0.0 4.8 0.00 0.00 0.00 66 1007.8
20260505064556 18 0 0.0 4.8 0.00 0.00 0.00 66 1007.7
20260505064035 18 71 0.0 6.4 0.00 0.00 0.00 66 1007.7
20260505063538 18 0 0.0 6.4 0.00 0.00 0.00 66 1007.8
20260505063051 18 0 0.0 4.8 0.00 0.00 0.00 66 1007.7
20260505062539 18 82 0.0 4.8 0.00 0.00 0.00 66 1007.6
20260505062037 18 66 0.0 4.8 0.00 0.00 0.00 66 1007.7
20260505061610 18 53 0.0 3.2 0.00 0.00 0.00 66 1007.7
20260505061039 18 0 0.0 3.2 0.00 0.00 0.00 66 1007.8
20260505060539 18 64 0.0 3.2 0.00 0.00 0.00 66 1007.7
20260505060054 18 51 0.0 3.2 0.00 0.00 0.00 66 1007.6
20260505055539 18 0 0.0 1.6 0.00 0.00 0.00 66 1007.5
20260505055041 18 0 0.0 3.2 0.00 0.00 0.00 66 1007.3
20260505054554 18 48 0.0 6.4 0.00 0.00 0.00 66 1007.3
20260505054038 18 52 0.0 6.4 0.00 0.00 0.00 66 1007.2
20260505053539 18 119 0.0 6.4 0.00 0.00 0.00 66 1007.2
20260505053046 18 68 0.0 6.4 0.00 0.00 0.00 66 1007.2
20260505052537 18 360 0.0 3.2 0.00 0.00 0.00 65 1007.2
20260505052037 18 0 0.0 3.2 0.00 0.00 0.00 66 1007.1
20260505051544 18 110 0.0 3.2 0.00 0.00 0.00 65 1007.2
20260505051038 19 132 0.0 1.6 0.00 0.00 0.00 65 1007.1
20260505050536 19 0 0.0 6.4 0.00 0.00 0.00 65 1007.2
20260505041556 19 7 0.0 4.8 0.00 0.00 0.00 65 1007.8
20260505041039 19 41 0.0 4.8 0.00 0.00 0.00 66 1007.7
20260505040536 19 75 0.0 3.2 0.00 0.00 0.00 66 1007.8
20260505040057 19 160 0.0 1.6 0.00 0.00 0.00 66 1007.8
20260505035536 19 0 0.0 3.2 0.00 0.00 0.00 66 1007.8
20260505035040 19 94 0.0 3.2 0.00 0.00 0.00 66 1007.9
20260505034548 19 81 0.0 1.6 0.00 0.00 0.00 66 1007.8
20260505034036 19 0 0.0 3.2 0.00 0.00 0.00 67 1007.9
20260505033536 19 0 0.0 3.2 0.00 0.00 0.00 67 1007.9
20260505033049 19 139 0.0 1.6 0.00 0.00 0.00 67 1007.8
20260505032539 19 0 0.0 3.2 0.00 0.00 0.00 67 1007.8
20260505032037 19 117 0.0 3.2 0.00 0.00 0.00 67 1007.8
20260505031551 19 92 0.0 3.2 0.00 0.00 0.00 67 1007.8
20260505031038 19 0 0.0 1.6 0.00 0.00 0.00 67 1007.7
20260505030540 19 82 0.0 1.6 0.00 0.00 0.00 67 1007.7
20260505030055 19 0 0.0 1.6 0.00 0.00 0.00 67 1007.7
20260505025537 19 0 0.0 1.6 0.00 0.00 0.00 67 1007.6
20260505025038 19 79 0.0 1.6 0.00 0.00 0.00 67 1007.5
20260505024541 19 0 0.0 3.2 0.00 0.00 0.00 67 1007.5
20260505024038 19 0 0.0 3.2 0.00 0.00 0.00 67 1007.4
20260505023540 19 0 0.0 1.6 0.00 0.00 0.00 67 1007.4
20260505023044 19 0 0.0 1.6 0.00 0.00 0.00 67 1007.3
20260505022535 19 0 0.0 1.6 0.00 0.00 0.00 68 1007.3
20260505022042 19 0 0.0 1.6 0.00 0.00 0.00 68 1007.2
20260505021550 19 0 0.0 1.6 0.00 0.00 0.00 68 1007.2
20260505021038 19 0 0.0 1.6 0.00 0.00 0.00 68 1007.2
20260505020539 19 0 0.0 1.6 0.00 0.00 0.00 67 1007.0
20260505020047 20 117 0.0 1.6 0.00 0.00 0.00 67 1007.0
20260505015539 20 122 0.0 1.6 0.00 0.00 0.00 67 1006.8
20260505015039 20 122 0.0 1.6 0.00 0.00 0.00 66 1006.8
20260505014546 20 0 0.0 1.6 0.00 0.00 0.00 66 1006.7
20260505014038 20 117 0.0 1.6 0.00 0.00 0.00 66 1006.6
20260505013538 20 0 0.0 1.6 0.00 0.00 0.00 66 1006.5
20260505013045 20 0 0.0 1.6 0.00 0.00 0.00 66 1006.6
20260505012535 20 0 0.0 1.6 0.00 0.00 0.00 65 1006.6
20260505012039 20 0 0.0 1.6 0.00 0.00 0.00 65 1006.5
20260505011546 20 0 0.0 1.6 0.00 0.00 0.00 65 1006.5
20260505011040 20 0 0.0 1.6 0.00 0.00 0.00 64 1006.4
20260505010538 20 105 0.0 1.6 0.00 0.00 0.00 64 1006.5
20260505010104 20 0 0.0 1.6 0.00 0.00 0.00 64 1006.4
20260505005539 21 0 0.0 1.6 0.00 0.00 0.00 63 1006.4
20260505005039 21 0 0.0 1.6 0.00 0.00 0.00 63 1006.4
20260505004549 21 0 0.0 1.6 0.00 0.00 0.00 62 1006.4
20260505004037 21 0 0.0 1.6 0.00 0.00 0.00 62 1006.5
20260505003541 21 0 0.0 4.8 0.00 0.00 0.00 62 1006.5
20260505003044 21 0 0.0 4.8 0.00 0.00 0.00 61 1006.4
20260505002535 21 0 0.0 3.2 0.00 0.00 0.00 61 1006.4
20260505002039 21 0 0.0 3.2 0.00 0.00 0.00 60 1006.4
20260505001553 21 0 0.0 1.6 0.00 0.00 0.00 59 1006.5
20260505001037 21 0 0.0 1.6 0.00 0.00 0.00 59 1006.5
20260505000538 22 0 0.0 1.6 0.00 0.00 0.00 59 1006.5
20260505000100 22 137 0.0 1.6 0.00 0.00 0.00 58 1006.6
20260504235540 22 0 0.0 1.6 0.00 0.00 0.00 57 1006.6
20260504235038 22 134 0.0 1.6 0.00 0.00 0.00 57 1006.8
20260504234602 22 101 0.0 3.2 0.00 0.00 0.00 57 1006.8
20260504234038 22 136 0.0 3.2 0.00 0.00 0.00 55 1006.8
20260504233539 22 0 0.0 3.2 0.00 0.00 0.00 55 1007.0
20260504233045 23 77 0.0 3.2 0.00 0.00 0.00 55 1007.0
20260504232540 23 3 0.0 3.2 0.00 0.00 0.00 55 1007.1
20260504232041 23 77 0.0 4.8 0.00 0.00 0.00 54 1007.1
20260504231544 23 0 0.0 4.8 0.00 0.00 0.00 54 1007.2
20260504231035 23 0 0.0 3.2 0.00 0.00 0.00 53 1007.3
20260504230536 23 1 0.0 6.4 0.00 0.00 0.00 51 1007.3
20260504230044 23 96 0.0 6.4 0.00 0.00 0.00 51 1007.4
20260504225540 23 0 0.0 6.4 0.00 0.00 0.00 51 1007.4
20260504225035 23 0 0.0 6.4 0.00 0.00 0.00 50 1007.5
20260504224554 24 51 0.0 8.0 0.00 0.00 0.00 48 1007.5
20260504224039 24 46 0.0 8.0 0.00 0.00 0.00 48 1007.4
20260504223539 24 44 1.6 4.8 0.00 0.00 0.00 50 1007.3
20260504223047 24 0 0.0 6.4 0.00 0.00 0.00 51 1007.4
20260504222535 24 0 0.0 6.4 0.00 0.00 0.00 50 1007.5
20260504222037 23 120 0.0 6.4 0.00 0.00 0.00 51 1007.4
20260504221547 24 115 0.0 4.8 0.00 0.00 0.00 52 1007.4
20260504221038 24 65 0.0 3.2 0.00 0.00 0.00 52 1007.5
20260504220539 24 6 0.0 4.8 0.00 0.00 0.00 54 1007.4
20260504220100 24 85 0.0 4.8 0.00 0.00 0.00 56 1007.4
20260504215539 23 0 0.0 1.6 0.00 0.00 0.00 54 1007.3
20260504215039 24 0 0.0 1.6 0.00 0.00 0.00 57 1007.6
20260504214556 24 0 0.0 1.6 0.00 0.00 0.00 59 1007.7
20260504214039 24 0 0.0 1.6 0.00 0.00 0.00 56 1007.7
20260504213539 25 0 0.0 1.6 0.00 0.00 0.00 55 1007.7
20260504213108 25 0 0.0 3.2 0.00 0.00 0.00 53 1007.9
20260504212538 25 0 0.0 3.2 0.00 0.00 0.00 53 1007.8
20260504212035 25 115 0.0 1.6 0.00 0.00 0.00 53 1007.9
20260504211547 26 0 0.0 1.6 0.00 0.00 0.00 51 1008.1
20260504211039 26 0 0.0 1.6 0.00 0.00 0.00 53 1008.2
20260504210538 26 0 0.0 1.6 0.00 0.00 0.00 51 1008.3
20260504210059 26 0 0.0 1.6 0.00 0.00 0.00 52 1008.3
20260504205536 26 0 0.0 6.4 0.00 0.00 0.00 49 1008.2
20260504205039 26 0 0.0 6.4 0.00 0.00 0.00 48 1008.3
20260504204600 27 125 0.0 3.2 0.00 0.00 0.00 49 1008.3
20260504204037 26 0 0.0 6.4 0.00 0.00 0.00 51 1008.4
20260504203535 26 0 0.0 6.4 0.00 0.00 0.00 50 1008.5
20260504203052 26 66 0.0 6.4 0.00 0.00 0.00 50 1008.5
20260504202539 26 0 0.0 4.8 0.00 0.00 0.00 52 1008.6
20260504202038 26 0 0.0 4.8 0.00 0.00 0.00 53 1008.7
20260504201553 25 71 0.0 3.2 0.00 0.00 0.00 52 1008.8
20260504201037 25 0 0.0 4.8 0.00 0.00 0.00 58 1008.8
20260504200536 25 56 0.0 6.4 0.00 0.00 0.00 56 1009.0
20260504200054 25 0 0.0 6.4 0.00 0.00 0.00 54 1009.0
20260504195535 25 143 0.0 3.2 0.00 0.00 0.00 55 1009.0
20260504195035 25 0 0.0 3.2 0.00 0.00 0.00 54 1009.1
20260504194557 25 65 0.0 3.2 0.00 0.00 0.00 57 1009.1
20260504194039 25 111 0.0 3.2 0.00 0.00 0.00 55 1009.2
20260504193536 25 0 0.0 3.2 0.00 0.00 0.00 59 1009.3
20260504193104 25 226 0.0 4.8 0.00 0.00 0.00 58 1009.4
20260504192537 24 56 0.0 4.8 0.00 0.00 0.00 60 1009.5
20260504192040 24 0 0.0 1.6 0.00 0.00 0.00 60 1009.6
20260504191553 23 0 0.0 1.6 0.00 0.00 0.00 65 1009.8
20260504191038 23 0 0.0 3.2 0.00 0.00 0.00 65 1009.8
20260504190536 22 0 0.0 3.2 0.00 0.00 0.00 61 1009.7
20260504190054 23 0 0.0 4.8 0.00 0.00 0.00 62 1009.8
20260504185535 22 183 0.0 4.8 0.00 0.00 0.00 63 1009.9
20260504185035 22 0 0.0 3.2 0.00 0.00 0.00 65 1010.0
20260504184545 22 0 0.0 3.2 0.00 0.00 0.00 65 1010.1
20260504184037 21 0 0.0 1.6 0.00 0.00 0.00 66 1009.9
20260504183536 21 0 0.0 3.2 0.00 0.00 0.00 68 1010.0
20260504183056 21 0 0.0 3.2 0.00 0.00 0.00 67 1010.1
20260504182535 21 0 0.0 4.8 0.00 0.00 0.00 66 1010.0
20260504182035 21 0 0.0 6.4 0.00 0.00 0.00 66 1010.1
20260504181544 22 0 0.0 6.4 0.00 0.00 0.00 65 1010.0
20260504181038 22 0 0.0 6.4 0.00 0.00 0.00 65 1009.9
20260504180536 21 0 0.0 3.2 0.00 0.00 0.00 67 1009.9
20260504180110 21 0 0.0 3.2 0.00 0.00 0.00 69 1009.9
20260504175541 21 0 0.0 3.2 0.00 0.00 0.00 66 1009.8
20260504175036 21 0 0.0 4.8 0.00 0.00 0.00 64 1009.8
20260504174548 21 118 0.0 6.4 0.00 0.00 0.00 64 1009.8
20260504174039 21 83 1.6 6.4 0.00 0.00 0.00 64 1009.7
20260504173538 22 0 0.0 4.8 0.00 0.00 0.00 63 1009.5
20260504173052 22 126 0.0 4.8 0.00 0.00 0.00 65 1009.6
20260504172535 22 106 0.0 4.8 0.00 0.00 0.00 66 1009.6
20260504172039 22 140 0.0 4.8 0.00 0.00 0.00 65 1009.6
20260504171553 21 0 1.6 4.8 0.00 0.00 0.00 67 1009.6
20260504171036 21 90 0.0 3.2 0.00 0.00 0.00 68 1009.6
20260504170535 21 0 0.0 4.8 0.00 0.00 0.00 68 1009.7
20260504151039 20 124 0.0 3.2 0.00 0.00 0.00 69 1010.6
20260504150541 20 126 0.0 1.6 0.00 0.00 0.00 72 1010.5
20260504141035 17 0 0.0 3.2 0.00 0.00 0.00 72 1010.4
20260504140535 16 0 0.0 3.2 0.00 0.00 0.00 74 1010.5